Starlink 33635

operational
NORAD ID: 63065 Int'l Des: 2025-035 Owner: SPXS Country: US Constellation: starlink
LEOCIRCULAR

About Starlink 33635

Description loading...

Live Position

Loading 3D Globe...

Upcoming Passes

Altitude History

Altitude vs Time

uPlot chart will show altitude changes over time

Two-Line Element Set

1 63065U 25035P 25303.98633439 .00044191 00000-0 16029-2 0 9992
2 63065 43.0016 159.5506 0002326 260.8780 99.1809 15.27637472 39890
Epoch: Oct 30, 2025 • Age: 20 hours

Current Status

Altitude 486.7 km
Velocity 7.62 km/s
Sub-Earth Point -21.15°S, 151.05°E
Launch Date Feb 21, 2025
Age 0.6 years
Type internet

Technical Details

Classification Payload
Mass 575.00 kg
Dry Mass 530.00 kg
Total Mass 575.00 kg
Length 0.30 m
Diameter 4.10 m
Span 29.00 m
Shape Box + pan
Manufacturer SPXS
Bus Type Starlink V2MO
Phase Status In Orbit
Owner/State SPXS/US

Large Constellations

Loading constellations...